Track COSMOS 2300 now! 10-day predictions COSMOS 2300 is classified as:
1 23442U 94086B 19049.96920779 +.00000016 +00000-0 +30593-4 0 9995 2 23442 082.5614 215.7111 0003003 170.9368 305.4371 12.62737655112945